This is the latest recevied weather packets stored in our database for station/object IZ5MMH-14. If no packets are shown the sender has not sent any weather packets the latest 10 day(s).
| Time | Temp. | Humidity | Pressure | Rain* | Wind** | Luminosity | Snow |
|---|---|---|---|---|---|---|---|
| 1777537198 | 22.22° C | 58% | 1018.6 hPa | - | - | - | - |
| 1777536598 | 21.67° C | 58% | 1018.5 hPa | - | - | - | - |
| 1777535998 | 21.11° C | 60% | 1018.5 hPa | - | - | - | - |
| 1777535398 | 20.56° C | 61% | 1018.5 hPa | - | - | - | - |
| 1777534798 | 21.11° C | 63% | 1018.5 hPa | - | - | - | - |
| 1777534198 | 21.11° C | 60% | 1018.4 hPa | - | - | - | - |
| 1777533598 | 21.11° C | 63% | 1018.2 hPa | - | - | - | - |
| 1777532998 | 21.67° C | 62% | 1018.3 hPa | - | - | - | - |
| 1777532398 | 21.67° C | 64% | 1018.2 hPa | - | - | - | - |
| 1777531799 | 21.11° C | 67% | 1018 hPa | - | - | - | - |
| 1777531198 | 21.67° C | 68% | 1018 hPa | - | - | - | - |
| 1777530598 | 21.11° C | 69% | 1017.9 hPa | - | - | - | - |
| 1777529998 | 21.11° C | 70% | 1017.8 hPa | - | - | - | - |
| 1777529398 | 20.56° C | 72% | 1017.7 hPa | - | - | - | - |
| 1777528798 | 20° C | 77% | 1017.9 hPa | - | - | - | - |
| 1777528198 | 19.44° C | 81% | 1018 hPa | - | - | - | - |
| 1777527598 | 18.89° C | 82% | 1017.9 hPa | - | - | - | - |
| 1777526998 | 18.33° C | 83% | 1017.7 hPa | - | - | - | - |
| 1777526398 | 18.33° C | 82% | 1017.6 hPa | - | - | - | - |
| 1777525798 | 17.78° C | 83% | 1017.4 hPa | - | - | - | - |
| 1777525198 | 17.22° C | 85% | 1017.2 hPa | - | - | - | - |
| 1777524598 | 16.67° C | 86% | 1017.1 hPa | - | - | - | - |
| 1777523998 | 16.67° C | 85% | 1016.9 hPa | - | - | - | - |
| 1777523398 | 16.11° C | 85% | 1016.9 hPa | - | - | - | - |
| 1777522798 | 16.11° C | 84% | 1016.8 hPa | - | - | - | - |
* Rain since midnight (hover to see other rain measurements)
** Current wind speed in m/s (hover to see current wind gust speed)